Back to catalog

TITAN 3C TRANSTAGE DEB

LostHEO
NORAD 26527·DEBRIS·🇺🇸 United States

Launched Dec 21, 1965 from Cape Canaveral Space Force Station

Loading…

Next Passes (next 24 hours)

TLE

StaleSource: Space-Track

Epoch: Jul 24, 2026, 13:23 UTC

1 26527U 65108AN  26205.55765199  .00000126  00000-0  28561-2 0  9997
2 26527  26.8704 287.8252 6784779 198.8888 348.7043  2.71525473270816

Track TITAN 3C TRANSTAGE DEB in real time with AllMySat

Download on the App Store